Weather History for Bigfork, MN

Change the Weather History Date:

Wednesday, March 19, 2014

  Actual Average (KGPZ) Record (KGPZ)
Temperature  
Mean Temperature 28 °F -  
Max Temperature 32 °F 40 °F 73 °F (2012)
Min Temperature 24 °F 18 °F -32 °F (1923)
Degree Days  
Heating Degree Days 37    
Moisture  
Dew Point 20 °F    
Average Humidity 73    
Maximum Humidity 86    
Minimum Humidity 64    
Precipitation  
Precipitation 0.00 in - - ()
Sea Level Pressure  
Sea Level Pressure 29.87 in    
Wind  
Wind Speed 3 mph (NW)    
Max Wind Speed 7 mph    
Max Gust Speed -    
Visibility 10 miles    
Events Snow    
Averages and records for this station are not official NWS values.
T = Trace of Precipitation, MM = Missing Value Source: NWS Daily Summary

Daily Weather History Graph

Daily Weather History Graph

Search for Another Location

Airport:

Trip Planner

Search our weather history database for the weather conditions in past years. The results will help you decide how hot, cold, wet, or windy it might be!

Date:

Astronomy

Mar. 19, 2014 Rise Set
Actual Time 7:19 AM CDT 7:25 PM CDT
Civil Twilight 6:48 AM CDT 7:56 PM CDT
Nautical Twilight 6:12 AM CDT 8:33 PM CDT
Astronomical Twilight 5:35 AM CDT 9:10 PM CDT
Moon 11:01 PM CDT (3/19) 8:32 AM CDT (3/19)
Length of Visible Light 13h 08m
Length of Day
12h 06m
Waning Gibbous, 91% of the Moon is Illuminated
Mar 19
Waning Gibbous
Mar 23
Last Quarter
Mar 30
New
Apr 7
First Quarter
Apr 15
Full

Hourly Weather History & Observations

Time (CDT) Temp. Windchill Dew Point Humidity Pressure Visibility Wind Dir Wind Speed Gust Speed Precip Events Conditions
12:13 AM 28.4 °F 24.6 °F 21.2 °F 74% 29.88 in 10.0 mi North 3.5 mph - N/A   Overcast
12:33 AM 28.4 °F 24.6 °F 21.2 °F 74% 29.88 in 10.0 mi North 3.5 mph - N/A   Overcast
12:53 AM 28.4 °F 24.6 °F 21.2 °F 74% 29.87 in 10.0 mi North 3.5 mph - N/A   Overcast
1:13 AM 28.4 °F 24.6 °F 21.2 °F 74% 29.87 in 10.0 mi North 3.5 mph - N/A   Mostly Cloudy
1:33 AM 28.4 °F 24.6 °F 21.2 °F 74% 29.87 in 10.0 mi North 3.5 mph - N/A   Clear
1:53 AM 28.4 °F 24.6 °F 21.2 °F 74% 29.87 in 10.0 mi North 3.5 mph - N/A   Scattered Clouds
2:13 AM 28.4 °F 24.6 °F 21.2 °F 74% 29.87 in 10.0 mi NNW 3.5 mph - N/A   Mostly Cloudy
2:33 AM 28.4 °F 24.6 °F 21.2 °F 74% 29.86 in 10.0 mi NNW 3.5 mph - N/A   Mostly Cloudy
2:53 AM 26.6 °F 22.6 °F 21.2 °F 80% 29.86 in 10.0 mi North 3.5 mph - N/A   Mostly Cloudy
3:13 AM 26.6 °F - 21.2 °F 80% 29.86 in 10.0 mi Calm Calm - N/A   Overcast
3:33 AM 26.6 °F - 21.2 °F 80% 29.85 in 10.0 mi Calm Calm - N/A   Overcast
3:53 AM 26.6 °F - 21.2 °F 80% 29.85 in 10.0 mi Calm Calm - N/A   Overcast
4:13 AM 26.6 °F 22.6 °F 21.2 °F 80% 29.85 in 10.0 mi NW 3.5 mph - N/A   Overcast
4:33 AM 26.6 °F 21.2 °F 21.2 °F 80% 29.85 in 10.0 mi NW 4.6 mph - N/A   Overcast
4:53 AM 26.6 °F 22.6 °F 21.2 °F 80% 29.85 in 10.0 mi NW 3.5 mph - N/A   Overcast
5:13 AM 26.6 °F - 21.2 °F 80% 29.85 in 10.0 mi Calm Calm - N/A   Overcast
5:33 AM 26.6 °F 22.6 °F 21.2 °F 80% 29.85 in 10.0 mi NNW 3.5 mph - N/A   Overcast
5:53 AM 26.6 °F - 21.2 °F 80% 29.85 in 10.0 mi Calm Calm - N/A   Overcast
6:13 AM 26.6 °F 21.2 °F 21.2 °F 80% 29.85 in 10.0 mi NNW 4.6 mph - N/A Snow Light Snow
6:33 AM 26.6 °F - 21.2 °F 80% 29.85 in 10.0 mi Calm Calm - N/A Snow Light Snow
6:53 AM 26.6 °F - 21.2 °F 80% 29.85 in 10.0 mi Calm Calm - N/A   Overcast
7:13 AM 26.6 °F - 21.2 °F 80% 29.86 in 10.0 mi Calm Calm - N/A   Overcast
7:33 AM 26.6 °F - 21.2 °F 80% 29.86 in 10.0 mi Calm Calm - N/A   Overcast
7:53 AM 26.6 °F - 21.2 °F 80% 29.87 in 10.0 mi Calm Calm - N/A   Overcast
8:13 AM 26.6 °F - 21.2 °F 80% 29.86 in 10.0 mi Calm Calm - N/A   Overcast
8:33 AM 26.6 °F - 21.2 °F 80% 29.86 in 10.0 mi Calm Calm - N/A Snow Light Snow
8:53 AM 26.6 °F 22.6 °F 21.2 °F 80% 29.86 in 10.0 mi North 3.5 mph - N/A   Overcast
9:13 AM 26.6 °F - 23.0 °F 86% 29.86 in 10.0 mi Calm Calm - N/A Snow Light Snow
9:33 AM 26.6 °F 21.2 °F 23.0 °F 86% 29.86 in 10.0 mi NW 4.6 mph - N/A Snow Light Snow
9:53 AM 26.6 °F 22.6 °F 21.2 °F 80% 29.86 in 7.0 mi NNW 3.5 mph - N/A Snow Light Snow
10:13 AM 28.4 °F 24.6 °F 23.0 °F 80% 29.87 in 10.0 mi NNW 3.5 mph - N/A Snow Light Snow
10:33 AM 28.4 °F 24.6 °F 23.0 °F 80% 29.87 in 7.0 mi North 3.5 mph - N/A Snow Light Snow
10:53 AM 28.4 °F 21.2 °F 23.0 °F 80% 29.87 in 7.0 mi North 6.9 mph - N/A Snow Light Snow
11:13 AM 28.4 °F 22.2 °F 21.2 °F 74% 29.87 in 7.0 mi North 5.8 mph - N/A Snow Light Snow
11:33 AM 30.2 °F 25.4 °F 21.2 °F 69% 29.87 in 10.0 mi NW 4.6 mph - N/A Snow Light Snow
11:53 AM 30.2 °F 24.3 °F 21.2 °F 69% 29.87 in 7.0 mi NNW 5.8 mph - N/A Snow Light Snow
12:13 PM 30.2 °F 26.7 °F 21.2 °F 69% 29.87 in 7.0 mi North 3.5 mph - N/A Snow Light Snow
12:33 PM 30.2 °F 26.7 °F 23.0 °F 75% 29.87 in 7.0 mi NW 3.5 mph - N/A Snow Light Snow
12:53 PM 30.2 °F 25.4 °F 21.2 °F 69% 29.86 in 7.0 mi NNW 4.6 mph - N/A Snow Light Snow
1:13 PM 30.2 °F 26.7 °F 23.0 °F 75% 29.86 in 7.0 mi NNW 3.5 mph - N/A Snow Light Snow
1:33 PM 30.2 °F 26.7 °F 23.0 °F 75% 29.86 in 7.0 mi WNW 3.5 mph - N/A Snow Light Snow
1:53 PM 32.0 °F 28.7 °F 23.0 °F 69% 29.86 in 7.0 mi NW 3.5 mph - N/A Snow Light Snow
2:13 PM 30.2 °F 26.7 °F 23.0 °F 75% 29.85 in 7.0 mi NNW 3.5 mph - N/A Snow Light Snow
2:33 PM 30.2 °F 23.4 °F 23.0 °F 75% 29.85 in 7.0 mi West 6.9 mph - N/A Snow Light Snow
2:53 PM 32.0 °F 27.5 °F 23.0 °F 69% 29.85 in 10.0 mi West 4.6 mph - N/A   Mostly Cloudy
3:13 PM 32.0 °F 25.6 °F 21.2 °F 64% 29.85 in 10.0 mi West 6.9 mph - N/A   Mostly Cloudy
3:33 PM 30.2 °F 24.3 °F 19.4 °F 64% 29.85 in 10.0 mi WNW 5.8 mph - N/A   Overcast
3:53 PM 30.2 °F 24.3 °F 19.4 °F 64% 29.85 in 10.0 mi West 5.8 mph - N/A   Overcast
4:13 PM 30.2 °F 25.4 °F 19.4 °F 64% 29.86 in 10.0 mi West 4.6 mph - N/A   Overcast
4:33 PM 30.2 °F 23.4 °F 19.4 °F 64% 29.86 in 10.0 mi WNW 6.9 mph - N/A   Overcast
4:55 PM 30.2 °F 23.4 °F 19.4 °F 64% 29.87 in 10.0 mi WNW 6.9 mph - N/A   Overcast
5:13 PM 30.2 °F 24.3 °F 19.4 °F 64% 29.87 in 10.0 mi WNW 5.8 mph - N/A   Overcast
5:33 PM 30.2 °F 24.3 °F 19.4 °F 64% 29.88 in 10.0 mi WNW 5.8 mph - N/A   Overcast
5:53 PM 28.4 °F 24.6 °F 17.6 °F 64% 29.88 in 10.0 mi NW 3.5 mph - N/A   Overcast
6:13 PM 28.4 °F 24.6 °F 17.6 °F 64% 29.89 in 10.0 mi West 3.5 mph - N/A   Overcast
6:33 PM 28.4 °F 24.6 °F 17.6 °F 64% 29.89 in 10.0 mi West 3.5 mph - N/A   Overcast
6:53 PM 28.4 °F 23.3 °F 17.6 °F 64% 29.90 in 10.0 mi NNW 4.6 mph - N/A   Overcast
7:13 PM 28.4 °F 21.2 °F 17.6 °F 64% 29.90 in 10.0 mi NNW 6.9 mph - N/A   Overcast
7:33 PM 28.4 °F - 17.6 °F 64% 29.90 in 10.0 mi Calm Calm - N/A   Overcast
7:53 PM 28.4 °F 24.6 °F 17.6 °F 64% 29.90 in 10.0 mi NW 3.5 mph - N/A   Overcast
8:13 PM 28.4 °F - 17.6 °F 64% 29.90 in 10.0 mi Calm Calm - N/A   Overcast
8:33 PM 28.4 °F - 17.6 °F 64% 29.90 in 10.0 mi Calm Calm - N/A   Overcast
8:53 PM 26.6 °F - 17.6 °F 69% 29.91 in 10.0 mi Calm Calm - N/A   Overcast
9:13 PM 26.6 °F - 17.6 °F 69% 29.91 in 10.0 mi Calm Calm - N/A   Overcast
9:33 PM 26.6 °F - 17.6 °F 69% 29.91 in 10.0 mi Calm Calm - N/A   Overcast
9:53 PM 26.6 °F - 17.6 °F 69% 29.90 in 10.0 mi Calm Calm - N/A   Overcast
10:13 PM 26.6 °F - 17.6 °F 69% 29.91 in 10.0 mi Calm Calm - N/A   Overcast
10:33 PM 26.6 °F - 19.4 °F 74% 29.91 in 10.0 mi Calm Calm - N/A   Overcast
10:53 PM 26.6 °F - 19.4 °F 74% 29.92 in 10.0 mi Calm Calm - N/A   Overcast
11:13 PM 26.6 °F - 17.6 °F 69% 29.92 in 10.0 mi Calm Calm - N/A   Overcast
11:33 PM 24.8 °F - 17.6 °F 74% 29.91 in 10.0 mi Calm Calm - N/A   Overcast
11:53 PM 24.8 °F - 17.6 °F 74% 29.91 in 10.0 mi Calm Calm - N/A   Overcast